ATLAS 5 CENTAUR DEB, 46668

Orbit data source: Space-Track

ATLAS 5 CENTAUR DEB, 46668 is space debris in HEO originally from a launch on Wed, 17 Oct 2018 UTC launched from the Air Force Eastern Test Range (AFETR). Debris objects in space refer to the collection of defunct objects orbiting the Earth. Examples of debris include non-operational satellites, rocket bodies, and fragments generated from explosions, collisions, or faulty payload assembly.

Loading next visibility...
Identifier
46668, 2018-079CW
Orbit
HEO
Country
Flag of USUS
Related business
Flag of USUnited Launch Alliance/Lockheed Martin (US)
Manufacturer
ULA Decatur
Mission
Spacecraft
Bus & Motor
Unknown
Mass
Unknown
Launch date (UTC)
2018-10-17 (7 years ago)
Launch vehicle
Unknown
Launch site
Air Force Eastern Test Range (AFETR)
Object type
Payload
Rocket body
Debris
Shape & HBR
Unknown shape, 1.1 m
Radar Cross Section
RCS unknown

Expand to show TLE details & history
Last TLE update: 2 days ago

TLE from 2 days ago
0 ATLAS 5 CENTAUR DEB
1 46668U 18079CW  25307.84548536 -.00000043  00000-0  00000-0 0  9993
2 46668  13.0068  53.0367 4653776 282.7278  30.8079  1.83702910 34036
Epoch: 2025-11-03T20:17Z
TLE epoch observation values (Epoch: 2025-11-03T20:17:29.935Z)
Latitude
0.00002°
Longitude
65.24105°
Altitude
13,623.827 km
Speed
5.07 km/s
True Right ascension
03h 31m 49s
True Declination
0° 00' 00"
Sunlit
Object was in daylight at epoch
Visualization orbit readout
Latitude
Unknown
Longitude
Unknown
Altitude
Unknown
Speed
Unknown
Apparent Right ascension
Unknown
Apparent Declination
Unknown
Sunlit
N/A
Visualization observer readout
Local Sidereal Time
17:59:09
Azimuth
Unknown
Elevation
Unknown
Doppler factor
Unknown
Orbital elements
Apogee altitude
34,892.367 km
Perigee altitude
8,678.826 km
Semi-major axis
28,163.733 km
Eccentricity
0.46538
Inclination
13.0068°
RAAN
53.0367°
Arg. of periapsis
282.7278°
True anomaly
77.52606°
Mean anomaly
30.8079°
Eccentric anomaly
51.74681°
Mean motion
0.45921 °/min
Orbital period
783.96 mins
BSTAR
0
Loading maneuver chart data...
Computing Atmospheric mass density...

Documentation

Showing up to 5 results
|